Theta_e
303 303 303 302 302 302 301 301 301 302 301 301 301 302 302 303 304 304 305 305 305 306 307 307 307 308 307 307 307 307 305 304 300 303 305 305 298 295 295 293 293 292 292
301 300 299 299 299 299 298 298 299 298 299 299 299 299 299 300 300 300 300 301 301 301 303 303 302 303 302 303 304 303 303 303 301 298 301 302 299 294 293 291 290 290 289
299 298 297 297 296 296 296 296 296 296 297 297 297 296 296 297 297 298 298 298 299 299 300 300 301 300 298 299 299 299 300 301 300 298 298 300 296 288 287 286 286 286 287
297 296 295 295 294 294 294 294 294 294 294 294 294 294 295 295 295 296 295 295 296 297 297 297 297 296 295 296 296 296 296 296 296 296 296 296 296 285 284 285 284 284 284
295 294 293 293 292 292 292 292 292 292 292 292 291 291 292 292 293 292 291 291 292 293 293 293 293 292 290 292 293 293 293 292 292 292 292 293 291 283 284 284 283 283 283
292 291 290 290 290 290 289 289 289 289 289 289 289 289 288 290 291 291 290 289 289 290 290 291 291 290 291 292 292 292 292 290 288 289 289 289 289 286 283 283 282 280 280
290 289 288 288 288 288 287 287 287 287 288 287 287 287 287 288 290 290 289 288 288 289 289 289 289 289 289 289 290 291 290 291 291 289 287 287 287 286 284 282 282 282 282
289 289 287 287 286 286 285 285 286 286 286 286 286 286 286 286 289 289 288 287 287 288 288 289 288 288 289 288 287 286 286 287 287 287 286 286 286 285 285 285 284 283 282
287 286 286 285 284 284 282 284 285 285 284 284 285 284 284 285 287 288 287 285 286 286 287 287 287 287 288 288 286 285 285 286 287 288 288 288 287 287 286 284 282 280 279
283 283 284 284 282 282 283 283 284 284 283 284 283 284 284 284 287 287 287 285 284 285 286 286 286 287 287 287 284 285 284 285 284 285 285 285 286 286 286 285 284 282 280
282 281 281 282 281 282 282 283 283 283 283 282 282 283 284 285 285 287 287 285 284 284 285 285 284 286 286 286 288 285 285 285 285 284 284 284 283 282 281 281 281 281 281
279 278 278 278 280 281 281 282 282 283 282 281 282 283 285 285 285 286 286 286 286 284 284 283 283 285 286 288 286 287 287 285 285 284 283 281 279 278 277 277 277 277 277
274 273 275 277 278 280 280 280 282 283 282 282 282 281 283 284 285 286 285 286 286 285 284 284 285 286 287 286 287 286 285 285 284 282 280 278 278 278 278 277 276 275 273
272 274 276 276 278 279 281 281 281 281 281 281 281 281 281 282 283 284 285 284 283 284 284 284 285 286 286 285 285 285 285 284 283 281 279 279 280 278 276 277 275 274 272
272 273 275 277 277 276 277 278 278 279 280 279 279 280 280 280 282 285 286 284 284 285 284 284 284 284 283 283 282 282 282 283 282 282 280 278 277 276 276 276 275 274 272
270 272 273 272 273 274 274 275 278 279 280 281 282 282 281 284 285 286 286 286 286 286 284 283 283 283 282 281 280 279 279 279 279 280 279 278 276 275 274 274 275 273 270
267 268 269 270 270 271 271 271 270 274 277 279 280 281 282 283 285 286 286 286 286 286 283 284 283 282 280 279 278 277 275 275 276 277 277 275 274 274 274 272 272 271 269
265 266 267 269 269 269 269 269 270 269 269 271 276 278 280 282 283 285 286 286 284 284 283 282 280 279 278 277 276 275 274 273 272 273 273 273 273 273 272 271 270 269 267
264 266 266 267 267 267 267 267 268 269 269 270 272 276 279 282 283 284 286 284 282 281 279 278 278 276 275 274 274 273 272 270 271 271 270 269 270 270 268 267 265 265 265
264 265 265 265 265 266 266 266 267 268 268 269 271 272 276 280 279 281 282 282 280 277 276 275 274 274 273 272 271 269 269 269 268 268 267 267 268 268 266 264 263 262 261
264 265 264 264 265 265 265 265 266 267 268 269 270 273 277 277 279 280 277 278 277 274 273 272 271 270 270 269 269 268 268 267 266 265 265 264 265 262 263 263 258 257 257
263 264 265 264 264 264 265 266 266 266 267 268 270 272 277 278 279 275 273 271 271 271 271 270 268 267 267 267 267 266 265 264 263 263 262 261 261 260 258 257 257 256 255
264 264 264 264 265 264 265 265 266 267 268 269 271 272 276 276 273 271 268 266 266 266 266 266 264 263 263 263 264 265 263 262 262 262 261 260 260 259 257 256 254 254 254
264 263 263 263 264 263 264 264 265 266 268 270 272 273 271 270 268 266 265 264 264 263 264 264 263 262 261 261 260 260 260 260 260 260 260 261 258 257 256 253 254 253 253
262 262 262 262 262 262 263 263 264 266 267 268 269 269 267 266 264 263 263 263 262 262 262 262 262 261 261 260 260 259 260 259 258 258 258 258 256 255 252 253 253 253 253
261 261 261 262 261 262 261 262 263 264 264 265 265 265 265 264 263 263 262 262 262 262 261 261 261 261 260 260 259 259 259 258 255 258 257 256 254 252 251 251 250 252 251
Wind_Speed
10 10 9 9 9 8 8 8 8 7 8 8 8 8 8 8 7 7 8 9 9 10 10 10 11 11 9 9 8 9 10 9 13 20 11 9 4 7 6 5 5 5 4
9 9 9 9 9 8 8 8 7 7 7 7 7 7 7 8 8 8 9 9 10 10 11 10 12 9 14 13 9 11 11 10 11 21 15 12 10 6 4 4 3 3 4
9 9 9 9 8 8 8 7 7 7 6 6 6 6 7 7 8 8 9 9 10 10 11 11 12 12 12 10 11 11 11 9 10 13 16 11 6 2 3 2 3 3 3
8 8 8 7 7 7 7 7 7 7 6 7 6 6 7 7 8 7 9 10 10 10 10 11 12 12 14 13 11 12 11 11 11 11 13 11 8 1 2 3 4 3 3
8 8 8 7 7 7 7 6 6 5 7 7 9 8 8 8 6 9 11 10 11 12 11 12 12 13 15 17 11 12 11 10 10 10 11 10 7 3 4 1 4 1 1
8 7 7 5 5 5 5 6 6 6 6 6 7 6 8 7 13 15 13 10 11 12 13 12 11 14 16 20 20 23 18 12 12 9 11 11 11 3 2 3 3 2 2
5 4 4 4 4 5 5 6 6 7 7 7 7 8 9 9 14 17 17 11 12 12 13 12 12 9 13 14 18 21 18 18 19 13 13 11 10 5 4 4 3 2 2
5 2 3 4 5 5 5 6 6 7 7 8 10 10 10 10 17 19 19 13 12 13 13 13 14 15 14 13 13 14 12 10 9 7 10 11 7 3 4 3 4 4 4
3 4 4 4 4 6 6 7 8 8 9 9 9 11 11 13 18 19 18 11 12 14 12 13 12 14 17 20 13 13 12 10 6 11 10 8 4 3 4 5 4 5 2
5 5 4 4 4 5 7 7 6 7 9 8 12 11 13 14 17 19 16 9 14 12 12 12 11 15 22 21 13 11 11 8 2 1 3 6 8 7 7 5 1 4 4
3 4 5 4 5 6 7 7 8 8 9 10 11 11 11 11 12 18 18 11 11 12 10 9 8 17 21 20 18 6 6 1 3 4 5 5 7 8 8 9 10 6 4
4 5 6 6 6 6 8 8 8 8 10 10 11 12 9 8 8 13 20 21 19 11 9 8 10 19 20 14 7 10 1 5 3 4 5 6 7 7 7 8 10 10 11
5 5 6 7 7 7 8 10 8 8 9 10 9 11 12 8 7 19 20 20 18 10 6 12 19 16 10 7 4 9 5 3 4 5 6 6 5 4 6 6 8 10 12
4 6 7 7 8 8 6 7 8 8 9 10 10 11 12 12 11 10 7 7 10 10 9 7 8 1 5 5 3 5 4 4 5 5 5 5 4 5 5 3 4 4 6
5 6 7 6 8 9 9 9 9 10 11 11 11 11 13 15 12 19 15 8 6 7 7 4 3 1 1 2 4 5 5 5 5 4 5 5 5 5 5 4 3 4 5
6 6 6 7 7 8 10 12 16 23 23 24 26 20 14 25 30 27 24 20 19 12 4 5 2 1 2 2 3 3 4 5 4 4 4 4 4 4 4 3 3 5 5
5 7 6 7 7 8 8 10 15 15 22 24 24 24 26 27 27 26 25 18 17 10 5 4 2 2 2 3 3 3 4 3 3 4 5 5 4 3 4 4 4 4 5
6 8 7 7 7 8 9 10 10 12 16 14 13 20 24 27 26 23 22 14 5 5 3 2 2 3 2 3 3 3 3 3 4 4 4 4 3 3 3 3 3 4 4
7 7 7 7 8 9 10 10 10 11 12 14 14 14 16 23 22 21 22 8 5 3 3 2 2 3 3 3 3 3 3 3 3 4 4 3 3 3 4 4 4 5 4
6 9 9 8 8 8 8 9 10 10 11 12 11 12 12 13 7 9 3 3 4 4 3 4 3 3 3 4 4 3 4 4 3 4 3 3 3 3 4 3 3 3 3
6 6 8 7 8 8 9 9 10 10 11 11 12 13 25 15 8 5 1 1 3 5 5 5 4 3 3 3 3 3 3 3 3 3 3 3 3 3 3 4 3 3 3
7 7 6 7 8 8 9 10 10 11 12 12 12 14 27 11 5 2 2 2 3 3 4 6 5 4 3 2 2 3 3 3 3 3 3 3 4 3 2 3 3 3 3
6 6 7 7 8 10 9 9 10 11 12 13 13 12 8 3 1 0 2 3 3 3 3 5 6 4 3 2 2 2 3 3 3 3 4 4 3 3 3 3 3 3 2
5 6 7 7 7 8 9 9 10 13 12 11 11 7 4 2 1 2 3 3 3 3 3 4 5 5 5 3 2 3 3 3 3 3 4 4 4 3 3 3 3 3 3
5 5 6 7 7 7 8 8 9 10 10 9 8 6 4 2 2 3 3 3 3 3 4 3 3 5 5 5 4 5 5 7 4 4 2 4 5 5 3 3 3 3 2
5 5 6 6 6 7 7 8 8 8 8 8 7 5 4 3 2 2 3 3 3 3 3 2 3 4 5 4 5 6 6 7 5 5 3 3 4 3 3 4 4 3 3
Wind_Direction
77 76 74 66 58 55 52 44 29 22 12 7 360 351 345 338 334 324 312 304 298 295 291 286 285 290 284 275 268 265 259 247 262 283 279 279 241 227 237 234 237 244 253
78 79 69 66 57 46 41 32 20 15 8 358 348 341 335 330 330 322 310 307 301 297 294 292 288 293 289 285 278 270 269 267 265 273 281 281 263 225 237 229 229 227 240
75 72 67 56 53 45 33 22 14 5 0 355 346 339 332 325 318 310 305 304 299 296 295 292 292 293 286 283 279 279 274 265 267 270 276 279 280 200 236 222 233 232 225
75 71 64 50 44 35 24 11 2 355 352 350 343 331 327 321 313 310 319 312 305 299 296 291 288 286 286 286 280 276 275 274 271 267 274 278 273 155 201 232 254 211 251
73 62 51 35 28 20 13 357 345 347 347 341 335 332 329 324 318 328 317 308 299 297 292 285 281 280 279 275 280 282 283 279 274 271 272 275 264 225 228 180 241 185 167
67 53 36 24 9 8 352 343 334 332 334 329 320 309 307 304 307 306 305 299 291 286 286 284 283 292 288 286 284 281 275 276 275 271 274 273 279 246 181 199 178 185 234
71 49 23 8 7 0 339 335 331 327 320 312 307 307 302 298 298 300 301 294 290 285 284 287 287 282 288 288 287 283 279 273 270 279 277 272 277 220 189 182 177 178 143
60 52 20 6 353 336 328 318 315 316 311 310 305 300 295 292 297 299 300 293 284 280 281 285 287 290 289 290 287 287 280 272 266 268 265 276 265 202 187 165 131 100 90
38 19 6 351 325 323 316 317 316 312 308 299 293 294 289 290 295 297 302 295 286 287 290 289 287 289 298 297 289 284 287 283 266 286 281 281 265 195 144 128 136 131 113
9 346 332 322 288 298 302 302 299 294 291 293 291 286 282 284 293 296 301 294 294 296 294 292 282 293 299 301 291 285 286 294 284 340 30 52 59 79 67 45 76 96 105
333 315 313 309 302 292 290 288 292 288 287 289 288 289 284 276 285 294 303 300 292 295 293 300 306 302 302 299 295 287 287 71 102 87 76 64 54 50 47 44 40 28 57
332 319 314 307 304 302 297 292 285 288 290 295 298 298 292 287 284 304 311 308 300 288 300 307 303 307 305 311 315 297 150 99 95 94 79 66 61 55 50 56 57 57 52
332 313 303 307 303 299 300 300 299 295 289 293 293 295 299 299 295 304 308 310 305 299 298 295 300 302 313 315 55 77 70 74 89 81 72 68 71 87 92 79 80 78 63
301 315 312 303 304 299 293 296 294 291 288 286 288 290 297 300 298 300 296 305 302 300 297 294 283 290 53 52 51 59 48 46 62 77 85 92 89 74 68 66 72 78 73
316 304 305 304 312 311 295 293 289 281 279 289 287 291 295 291 289 294 298 297 282 279 294 272 243 226 104 70 57 46 41 54 68 81 87 89 85 79 71 65 58 49 72
316 315 320 310 303 300 296 298 280 286 290 288 286 280 283 279 287 287 293 292 281 274 258 256 223 171 104 86 84 72 49 51 51 70 70 82 84 86 86 69 61 82 90
307 301 297 299 299 296 298 298 304 307 295 294 290 289 287 284 287 283 285 277 273 252 238 233 184 132 97 74 64 63 77 55 39 65 76 76 87 93 96 85 83 93 89
299 294 292 293 296 296 294 291 293 296 304 305 296 296 293 290 287 283 280 263 241 211 216 173 154 128 119 117 108 106 97 74 68 77 75 67 62 93 93 83 69 94 96
306 302 297 294 291 287 287 284 284 287 288 293 303 297 295 291 291 277 268 239 200 168 148 129 120 122 115 101 95 83 77 73 71 77 73 69 52 75 80 78 68 64 85
282 271 275 284 285 289 290 290 290 289 290 290 293 296 300 294 275 271 238 190 160 141 134 128 105 105 104 111 110 109 111 102 90 85 79 71 61 77 87 79 84 100 66
284 285 282 280 281 289 290 287 286 287 287 288 290 288 289 287 270 279 264 247 152 144 139 124 114 105 96 98 108 103 98 97 93 98 95 90 81 80 58 84 90 79 99
273 278 287 289 291 289 288 290 290 288 286 286 288 288 290 278 277 212 173 109 59 84 110 121 117 111 101 111 112 117 118 121 109 95 102 102 98 97 99 93 97 107 119
281 291 297 294 293 294 292 291 291 290 290 290 290 288 285 320 306 131 119 110 101 92 83 107 114 114 103 74 37 70 128 133 118 118 134 123 116 116 125 118 116 106 114
297 305 300 300 304 304 300 303 300 296 291 293 296 307 317 317 357 96 101 100 95 91 89 100 108 124 120 111 86 69 73 85 83 96 112 124 113 123 102 109 123 111 129
300 305 308 304 310 308 310 308 311 313 317 315 318 323 337 360 64 90 99 93 91 97 99 106 106 127 130 134 124 113 134 112 102 115 88 99 125 128 121 131 129 130 109
303 310 301 303 310 311 311 319 327 329 331 330 332 340 352 26 48 96 102 105 103 107 123 104 122 121 130 136 146 137 149 147 138 132 112 108 127 128 139 134 141 141 150